www.pogodaiklimat.ru

Погода и климат >> Архив погоды >> Катар >> Доха


АРХИВ ПОГОДЫ в Дохе

Время (UTC), дата Ветер
(напр.,м/с)
 
Видим.   Явления Облачность Т
(С)
Тd
(С)
f
(%)
Тe
(С)
Тes
(С)
Комфортность P
(гПа)
Po
(гПа)
Тmin
(С)
Tmax
(С)
R
(мм)
R24
(мм)
S
(см)
12 16.09 СВ 7 16 км н/о +36.5 +21.3 41 +44 +44 опасность
перегрева
1005.4 1004.1
15 16.09 С 4 13 км н/о +34.6 +21.8 47 +43 +43 опасность
перегрева
1005.6 1004.3
18 16.09 СЗ 5 8000 м н/о +33.1 +25.2 63 +47 +47 опасность
перегрева
1006.4 1005.1 +39.0
21 16.09 СЗ 2 10 км н/о +32.3 +24.1 62 +44 +44 опасность
перегрева
1005.2 1003.9
00 17.09 ЮВ 4 10 км н/о +30.4 +18.3 48 +35 +35 очень
душно
1004.6 1003.3
03 17.09 штиль 0 8000 м н/о +30.8 +25.0 71 +44 +44 опасность
перегрева
1006.5 1005.2
06 17.09 ЮВ 3 8000 м н/о +35.4 +23.7 51 +47 +47 опасность
перегрева
1007.4 1006.1 +29.8
09 17.09 СВ 6 10 км н/о +38.2 +23.6 43 +48 +48 опасность
перегрева
1005.6 1004.3
12 17.09 С 8 14 км н/о +38.2 +16.6 28 +40 +40 очень
душно
1003.8 1002.5
15 17.09 С 7 20 км н/о +34.8 +19.7 41 +40 +40 очень
душно
1004.2 1002.9
18 17.09 С 3 16 км н/о +32.8 +23.5 58 +44 +44 опасность
перегрева
1005.4 1004.1 +39.5
21 17.09 С 2 13 км н/о +30.7 +23.6 66 +42 +42 опасность
перегрева
1004.8 1003.5
00 18.09 ЮЗ 1 10 км н/о +31.3 +24.6 68 +44 +44 опасность
перегрева
1004.0 1002.7
03 18.09 В 1 10 км н/о +29.0 +21.8 65 +37 +37 очень
душно
1005.7 1004.4
06 18.09 ЮЗ 2 18 км н/о +38.6 -2.8 7 +34 +34 очень
жарко
1006.9 1005.6 +29.0
09 18.09 С 8 16 км н/о +40.9 -0.0 8 +37 +37 очень
жарко
1006.1 1004.8
12 18.09 В 8 19 км н/о +37.8 +15.4 27 +39 +39 очень
душно
1004.8 1003.5
15 18.09 С 4 20 км н/о +35.3 +18.4 37 +40 +40 очень
душно
1005.5 1004.2
18 18.09 С 3 15 км н/о +32.9 +23.4 57 +43 +43 опасность
перегрева
1006.6 1005.3 +41.6
21 18.09 СВ 1 12 км н/о +31.4 +24.5 67 +44 +44 опасность
перегрева
1005.6 1004.3
00 19.09 СЗ 4 9000 м н/о +31.2 +25.6 72 +46 +46 опасность
перегрева
1004.9 1003.6
03 19.09 ЮВ 1 7000 м н/о +30.9 +25.4 73 +45 +45 опасность
перегрева
1006.7 1005.4
06 19.09 Ю 1 6000 м н/о +34.5 +25.1 58 +48 +48 опасность
перегрева
1008.9 1007.6 +30.2
09 19.09 СВ 8 12 км н/о +37.3 +23.1 44 +47 +47 опасность
перегрева
1007.1 1005.8
12 19.09 В 8 17 км н/о +38.5 +16.5 28 +41 +41 опасность
перегрева
1005.6 1004.3
15 19.09 В 6 6000 м н/о +34.1 +26.8 66 +52 +52 опасность
перегрева
1006.0 1004.7
18 19.09 С 5 4000 м н/о +33.6 +27.1 69 +52 +52 опасность
перегрева
1007.2 1005.9 +39.5
21 19.09 В 1 4000 м н/о +32.3 +27.2 75 +51 +51 опасность
перегрева
1005.9 1004.6
00 20.09 В 1 3000 м н/о +31.4 +27.5 80 +50 +50 опасность
перегрева
1005.3 1004.0
03 20.09 штиль 0 3000 м н/о +30.9 +27.2 81 +49 +49 опасность
перегрева
1007.0 1005.7
06 20.09 Ю 4 н/о н/о +34.6 +25.0 58 +48 +48 опасность
перегрева
1008.8 1007.5 +30.4
09 20.09 СВ 7 9000 м н/о +37.4 +22.0 41 +45 +45 опасность
перегрева
1006.3 1005.0
12 20.09 В 9 н/о н/о +36.4 +25.5 54 +51 +51 опасность
перегрева
1004.7 1003.4
15 20.09 С 6 6000 м н/о +35.0 +25.0 56 +48 +48 опасность
перегрева
1005.4 1004.1
18 20.09 С 4 16 км н/о +33.1 +24.4 60 +45 +45 опасность
перегрева
1006.4 1005.1 +38.7
21 20.09 СЗ 1 14 км н/о +31.6 +24.8 67 +45 +45 опасность
перегрева
1005.0 1003.7
00 21.09 Ю 3 20 км н/о +32.5 +17.3 40 +36 +36 очень
душно
1003.7 1002.4
03 21.09 ЮЗ 3 13 км н/о +31.4 +18.7 47 +36 +36 очень
душно
1005.0 1003.7
06 21.09 Ю 2 15 км н/о +38.2 +6.3 14 +36 +36 очень
жарко
1006.1 1004.8 +30.9
09 21.09 В 7 15 км н/о +39.4 +9.8 17 +38 +38 очень
жарко
1004.2 1002.9
12 21.09 В 7 16 км н/о +38.3 +15.7 26 +40 +40 очень
душно
1002.4 1001.1
15 21.09 В 7 13 км н/о +35.3 +22.2 47 +44 +44 опасность
перегрева
1002.7 1001.4
18 21.09 В 4 11 км н/о +33.8 +23.1 54 +44 +44 опасность
перегрева
1003.9 1002.6 +40.4
21 21.09 ЮВ 4 8000 м н/о +32.9 +25.9 67 +49 +49 опасность
перегрева
1003.5 1002.2
00 22.09 Ю 2 7000 м н/о +32.4 +26.2 70 +49 +49 опасность
перегрева
1002.6 1001.3
03 22.09 Ю 6 11 км н/о +30.6 +22.4 62 +40 +40 очень
душно
1004.6 1003.3
06 22.09 С 4 13 км н/о +35.6 +19.2 38 +40 +40 очень
душно
1006.6 1005.3 +30.3
09 22.09 СВ 7 10 км н/о +35.5 +25.3 56 +50 +50 опасность
перегрева
1005.5 1004.2
12 22.09 В 8 11 км н/о +36.9 +22.1 43 +46 +46 опасность
перегрева
1004.1 1002.8
15 22.09 В 4 11 км н/о +35.1 +22.9 49 +45 +45 опасность
перегрева
1004.3 1003.0
18 22.09 В 3 10 км н/о +33.2 +25.4 64 +48 +48 опасность
перегрева
1005.5 1004.2 +38.2
21 22.09 ЮВ 2 11 км н/о +33.2 +24.0 59 +45 +45 опасность
перегрева
1004.8 1003.5
00 23.09 СЗ 3 9000 м н/о +31.8 +26.0 71 +47 +47 опасность
перегрева
1004.7 1003.4
03 23.09 СЗ 3 6000 м н/о +31.4 +26.9 77 +49 +49 опасность
перегрева
1006.7 1005.4
06 23.09 ЮВ 2 13 км н/о +37.3 +20.3 37 +43 +43 опасность
перегрева
1008.2 1006.9 +31.1
09 23.09 Ю 2 12 км н/о +41.5 +14.1 20 +42 +42 опасность
перегрева
1006.7 1005.4

 

Местоположение метеостанции Доха (Катар): широта 25.25 долгота 51.57 высота над уровнем моря 10 м.

В архиве по умолчанию представлена погода в Дохе за последнюю неделю. Архивные данные за месяц целиком и за предыдущие месяцы, начиная с января 2011 года, Вы можете получить, выбрав интересующий диапазон дат из раскрывающегося списка и нажав кнопку "Ввод!".


*Определитесь, кто Вы:
робот инопланетянин человек

Внимание! Время в таблицах - всемирное. Для получения местного времени необходимо прибавить поправку, которая равна 4 ч.

Смотрите также архив погоды в соседних городах и на ближайших метеорологических станциях:

Погода в Аэропорту Хамад (Катар) (5 км)
Погода в Доха порту (Катар) (26 км)
Погода в Духане (Катар) (84 км)
Погода в Абу Самба (Катар) (94 км)
Погода в Бахрейне (Бахрейн) (146 км)
Погода в Дахране (Саудовская Аравия) (180 км)
Погода в Эль-Хуфуфе (Саудовская Аравия) (210 км)
Погода в Эд-Даммаме (Саудовская Аравия) (220 км)
Погода на Острове Киш (Иран) (278 км)
Погода в Бендер-Дейере (Иран) (289 км)

Пояснения к столбцам:

Ветер - указаны скорость ветра в м/с - средняя за 10 мин, порывы в срок и между сроками (в фигурных скобках) и направление, откуда дует ветер: С - северный, СВ - северо-восточный, В - восточный, ЮВ - юго-восточный, Ю - южный, ЮЗ - юго-западный, З - западный, СЗ - северо-западный.
Видимость - горизонтальная дальность видимости в метрах или километрах. При видимости от 1 до 10 км при отсутствии осадков обычно наблюдается дымка, при ухудшении видимости до 1 км и менее - туман. В сухую погоду видимость может ухудшаться дымом, пылью или мглою.
Явления - указаны атмосферные явления, наблюдавшиеся в срок или в последний час перед сроком; фигурными скобками обозначены явления, наблюдавшиеся между сроками (за 1-3 часа до срока); квадратными скобками обозначены град или гололедные отложения с указанием их диаметра в мм.
Облачность - указаны через наклонную черту общая и нижняя облачность в баллах и высота нижней границы облаков в метрах; квадратными скобками обозначены формы облаков: Ci - перистые, Cs - перисто-слоистые, Cc - перисто-кучевые, Ac - высококучевые, As - высокослоистые, Sc - слоисто-кучевые, Ns - слоисто-дождевые, Cu - кучевые, Cb - кучево-дождевые. Подробнее классификацию облаков см. в Атласе облаков (PDF).
T - Температура воздуха - температура, измеренная на высоте 2 м над землей.
Td - Температура точки росы - температура, при понижении до которой содержащийся в воздухе водяной пар достигнет насыщения.
f - Относительная влажность воздуха - влажноcть воздуха, измеренная на высоте 2 м над землей.
Te - Эффективная температура - температура, которую ощущает одетый по сезону человек в тени. Характеристика душности погоды. При расчете учитывается влияние влажности воздуха и скорости ветра на теплоощущения человека.
Tes - Эффективная температура на солнце - температура, которую ощущает человек, с поправкой на солнечный нагрев. Характеристика знойности погоды. Зависит от высоты солнца над горизонтом, облачности и скорости ветра. Ночью, в пасмурную погоду, а также при ветре 12 м/с и более поправка равна нулю.
P - Атмосферное давление - приведенное к уровню моря атмосферное давление.
Po - Атмосферное давление - измеренное на уровне метеостанции атмосферное давление.
Tmin - Минимальная температура - минимум температуры воздуха на высоте 2 м над землей.
Tmax - Максимальная температура - максимум температуры воздуха на высоте 2 м над землей.
R - Количество осадков - Количество выпавших осадков за период времени, мм. При наведении курсора мыши на число - период времени, за который выпало указанное количество осадков.
R24 - Количество осадков - Количество выпавших осадков за 24 часа, мм.
S - Снежный покров - Высота снежного покрова, см. При наведении курсора мыши на число - состояние снежного покрова и степень покрытия местности в баллах.